Location: Atherton
(17.2661°S, 145.4859°E)
Time: 03:37:25
(UTC+10:00)

Hubble Space Telescope - Pass Details

Date: 11 February 2026
Orbit: 476 x 479 km, 28.5° (Epoch: 6 March)

Event Time Altitude Azimuth Distance (km) Brightness Sun altitude
Exits shadow 05:00:28 17° 352° (N) 1,261 2.4 -16.8°
Drops below altitude 10° 05:02:10 10° 17° (NNE) 1,639 3.2 -16.4°
Sets 05:04:49 0° 35° (NE) 2,513 4.4 -15.8°
